Regional Weather Roundup
Issued by NWS

Home | Current Version | Previous Version | Text Only | Print | Product List | Glossary Off
Versions: 1 2 3 4 5 6 7 8 9 10 11 12 13 14 15 16 17 18 19 20 21 22 23 24 25 26 27 28 29 30 31 32 33 34 35 36 37 38 39 40 41 42 43 44 45 46 47 48 49 50

000
ASUS45 KBOI 301810
RWRID
WEATHER ROUNDUP FOR IDAHO
NATIONAL WEATHER SERVICE BOISE ID
1200 PM MDT TUE SEP 30 2014

NOTE: "FAIR" INDICATES FEW OR NO CLOUDS BELOW 12000 FEET
WITH NO SIGNIFICANT WEATHER AND/OR OBSTRUCTIONS TO VISIBILITY

IDZ012-014-301900-
SOUTHWEST IDAHO


CITY           SKY/WX    TMP DP  RH WIND       PRES   REMARKS
BOISE          CLOUDY    56  42  59 NW16      30.00R
CALDWELL       MOSUNNY   57  37  47 NW16      30.03S
MOUNTAIN HOME  SUNNY     58  44  57 NW29G36   29.97S
$$

IDZ016-017-301900-
SOUTHCENTRAL IDAHO


CITY           SKY/WX    TMP DP  RH WIND       PRES   REMARKS
BURLEY         CLOUDY    53  48  83 W12       29.95F
JEROME         CLOUDY    52  49  89 W22G29    29.97S
TWIN FALLS     PTSUNNY   56  47  71 W24G30    29.98S
$$

IDZ019>023-301900-
SOUTHEAST IDAHO


CITY           SKY/WX    TMP DP  RH WIND       PRES   REMARKS
IDAHO FALLS    CLOUDY    54  46  74 SW15      29.91F
POCATELLO      CLOUDY    53  50  89 SW20G30   29.95S
REXBURG        CLOUDY    53  46  77 SW14      29.91F
$$

IDZ006-010-011-018-031-032-301900-
CENTRAL IDAHO MOUNTAINS


CITY           SKY/WX    TMP DP  RH WIND       PRES   REMARKS
MCCALL         CLOUDY    46  39  76 W12       29.96S
HAILEY         MOSUNNY   52  46  82 SE3       29.93F
STANLEY          N/A     48  36  63 SW7       29.96S
SALMON         CLOUDY    52  46  82 CALM      29.88S
CHALLIS        PTSUNNY   51  42  71 SE3       29.89F
$$

IDZ002-004-006-007-026-301900-
NORTHERN IDAHO


CITY           SKY/WX    TMP DP  RH WIND       PRES   REMARKS
LEWISTON       MOSUNNY   64  39  39 W18G26    29.95S
LOWELL           N/A     55  52  89 CALM      29.99R
COEUR D`ALENE  CLOUDY    54  45  71 S9        29.92S
MULLAN PASS    FOG       34  34 100 VRB7      29.92R VSB<1/4 WCI  28
$$



USA.gov is the U.S. government's official web portal to all federal, state and local government web resources and services.